This is the latest recevied weather packets stored in our database for station/object N1MCJ. If no packets are shown the sender has not sent any weather packets the latest 10 day(s).
| Time | Temp. | Humidity | Pressure | Rain* | Wind** | Luminosity | Snow |
|---|---|---|---|---|---|---|---|
| 1777730133 | 10.56° C | 86% | 1003.1 hPa | 0 mm | - | 109 W/m² | - |
| 1777729230 | 10.56° C | 89% | 1003.3 hPa | 0 mm | - | 115 W/m² | - |
| 1777728326 | 10° C | 91% | 1003.1 hPa | 0 mm | - | 75 W/m² | - |
| 1777727422 | 10° C | 90% | 1003.2 hPa | 0 mm | - | 76 W/m² | - |
| 1777726520 | 10° C | 94% | 1003.1 hPa | 0 mm | - | 67 W/m² | - |
| 1777725616 | 9.44° C | 93% | 1003.1 hPa | 0 mm | - | 53 W/m² | - |
| 1777724713 | 8.89° C | 95% | 1003.2 hPa | 0 mm | - | 48 W/m² | - |
| 1777723811 | 8.89° C | 97% | 1003.4 hPa | 0 mm | - | 62 W/m² | - |
| 1777722908 | 8.89° C | 99% | 1003.2 hPa | 0 mm | - | 51 W/m² | - |
| 1777722003 | 8.33° C | 99% | 1003.1 hPa | 0 mm | - | 36 W/m² | - |
| 1777721102 | 7.78° C | 99% | 1002.9 hPa | 0 mm | - | 15 W/m² | - |
| 1777720200 | 7.78° C | 99% | 1003.3 hPa | 1.78 mm | - | 4 W/m² | - |
| 1777719298 | 8.33° C | 99% | 1003.5 hPa | 3.05 mm | - | 3 W/m² | - |
| 1777718396 | 8.33° C | 99% | 1003.6 hPa | 0 mm | - | 0 W/m² | - |
| 1777717493 | 8.33° C | 99% | 1003.2 hPa | 0 mm | - | 6 W/m² | - |
| 1777716593 | 7.78° C | 99% | 1003.2 hPa | 0 mm | - | 0 W/m² | - |
| 1777715692 | 7.78° C | 99% | 1002.7 hPa | 0 mm | - | 0 W/m² | - |
| 1777714790 | 7.78° C | 98% | 1002.9 hPa | 0 mm | - | 0 W/m² | - |
| 1777713889 | 7.78° C | 98% | 1002.9 hPa | 0 mm | - | 0 W/m² | - |
| 1777712986 | 7.78° C | 97% | 1003 hPa | 0 mm | - | 0 W/m² | - |
| 1777712081 | 7.78° C | 96% | 1002.6 hPa | 0 mm | - | 0 W/m² | - |
| 1777711176 | 8.33° C | 95% | 1002.4 hPa | 0 mm | - | 0 W/m² | - |
| 1777710273 | 8.33° C | 94% | 1002.8 hPa | 0 mm | - | 0 W/m² | - |
| 1777709371 | 8.33° C | 93% | 1002.9 hPa | 0 mm | - | 0 W/m² | - |
| 1777708468 | 8.33° C | 92% | 1002.7 hPa | 0 mm | - | 0 W/m² | - |
* Rain latest hour (hover to see other rain measurements)
** Current wind speed in m/s (hover to see current wind gust speed)